Location: Columbia
(38.9520°N, 92.3340°W)
Time: 23:15:56
(UTC-05:00)

Iridium 15 - Visible Passes

Search period start: 30 August 2014 00:00
Search period end: 09 September 2014 00:00
Orbit: 776 x 779 km, 86.4° (Epoch: 30 August)

Date Brightness Start Highest point End Pass type
(mag) Time Alt. Az. Time Alt. Az. Time Alt. Az.
30 Aug 6.2 20:15:49 10° N 20:21:02 81° W 20:26:13 10° S visible
31 Aug 8.9 21:24:37 10° NW 21:27:40 16° W 21:30:44 10° WSW visible
01 Sep 8.1 20:50:00 10° NNW 20:54:26 29° W 20:58:52 10° SW visible
02 Sep 6.9 20:16:01 10° NNW 20:21:05 55° W 20:26:08 10° SSW visible
03 Sep 9.4 21:26:34 10° WNW 21:27:32 11° WNW 21:28:30 10° W visible
04 Sep 8.8 20:50:38 10° NW 20:54:23 20° W 20:58:07 10° SW visible
05 Sep 7.7 20:16:20 10° NNW 20:21:06 37° W 20:25:51 10° SSW visible
07 Sep 9.2 20:51:42 10° NW 20:54:16 14° WNW 20:56:51 10° WSW visible
08 Sep 8.5 20:16:50 10° NNW 20:21:04 26° W 20:25:18 10° SW visible
